| time (UTC) | temp F | wind direction | speed MPH | gust MPH | rain 1hr in | rain 24hr in | rain mn in | humidity % | barometer mb |
| 20260905201859 | 70 | 163 | 1.0 | 2.0 | 0.00 | 0.00 | 0.00 | 61 | 1007.9 |
| 20260905201553 | 70 | 190 | 0.0 | 2.0 | 0.00 | 0.00 | 0.00 | 61 | 1007.4 |
| 20260905201340 | 70 | 212 | 0.0 | 2.0 | 0.00 | 0.00 | 0.00 | 61 | 1007.9 |
| 20260905200848 | 71 | 252 | 1.0 | 2.0 | 0.00 | 0.00 | 0.00 | 61 | 1007.9 |
| 20260905200345 | 71 | 120 | 0.0 | 0.0 | 0.00 | 0.00 | 0.00 | 60 | 1007.8 |
| 20260905200047 | 71 | 120 | 0.0 | 0.0 | 0.00 | 0.00 | 0.00 | 60 | 1007.3 |
| 20260905195843 | 71 | 120 | 0.0 | 0.0 | 0.00 | 0.00 | 0.00 | 60 | 1007.7 |
| 20260905195343 | 72 | 120 | 0.0 | 0.0 | 0.00 | 0.00 | 0.00 | 60 | 1007.7 |
| 20260905194841 | 72 | 120 | 0.0 | 0.0 | 0.00 | 0.00 | 0.00 | 59 | 1007.7 |
| 20260905194502 | 72 | 120 | 0.0 | 1.0 | 0.00 | 0.00 | 0.00 | 58 | 1007.2 |
| 20260905194346 | 72 | 120 | 0.0 | 1.0 | 0.00 | 0.00 | 0.00 | 58 | 1007.7 |
| 20260905193842 | 74 | 121 | 0.0 | 1.0 | 0.00 | 0.00 | 0.00 | 56 | 1007.7 |
| 20260905193340 | 74 | 119 | 0.0 | 1.0 | 0.00 | 0.00 | 0.00 | 54 | 1007.6 |
| 20260905193040 | 74 | 119 | 0.0 | 1.0 | 0.00 | 0.00 | 0.00 | 54 | 1007.0 |
| 20260905192836 | 75 | 119 | 0.0 | 1.0 | 0.00 | 0.00 | 0.00 | 54 | 1007.6 |
| 20260905192355 | 74 | 117 | 0.0 | 1.0 | 0.00 | 0.00 | 0.00 | 55 | 1007.6 |
| 20260905191848 | 73 | 117 | 0.0 | 1.0 | 0.00 | 0.00 | 0.00 | 56 | 1007.7 |
| 20260905191549 | 72 | 117 | 0.0 | 1.0 | 0.00 | 0.00 | 0.00 | 56 | 1007.0 |
| 20260905191348 | 73 | 117 | 0.0 | 1.0 | 0.00 | 0.00 | 0.00 | 56 | 1007.6 |
| 20260905190335 | 72 | 128 | 1.0 | 2.0 | 0.00 | 0.00 | 0.00 | 55 | 1007.7 |
| 20260905190058 | 72 | 122 | 0.0 | 2.0 | 0.00 | 0.00 | 0.00 | 55 | 1007.2 |
| 20260905185855 | 73 | 130 | 1.0 | 2.0 | 0.00 | 0.00 | 0.00 | 54 | 1007.8 |
| 20260905185354 | 74 | 104 | 0.0 | 2.0 | 0.00 | 0.00 | 0.00 | 52 | 1007.6 |
| 20260905184850 | 74 | 109 | 0.0 | 2.0 | 0.00 | 0.00 | 0.00 | 53 | 1007.6 |
| 20260905184512 | 73 | 106 | 0.0 | 2.0 | 0.00 | 0.00 | 0.00 | 54 | 1007.0 |
| 20260905184410 | 73 | 100 | 1.0 | 3.0 | 0.00 | 0.00 | 0.00 | 52 | 1007.6 |
| 20260905183846 | 73 | 126 | 0.0 | 3.0 | 0.00 | 0.00 | 0.00 | 55 | 1007.5 |
| 20260905183347 | 73 | 116 | 0.0 | 1.0 | 0.00 | 0.00 | 0.00 | 53 | 1007.5 |
| 20260905183045 | 71 | 100 | 0.0 | 1.0 | 0.00 | 0.00 | 0.00 | 57 | 1007.0 |
| 20260905182845 | 72 | 98 | 0.0 | 1.0 | 0.00 | 0.00 | 0.00 | 58 | 1007.6 |
| 20260905182402 | 71 | 98 | 0.0 | 1.0 | 0.00 | 0.00 | 0.00 | 57 | 1007.5 |
| 20260905181838 | 71 | 98 | 0.0 | 2.0 | 0.00 | 0.00 | 0.00 | 56 | 1007.5 |
| 20260905181546 | 71 | 98 | 0.0 | 2.0 | 0.00 | 0.00 | 0.00 | 56 | 1006.9 |
| 20260905181337 | 72 | 98 | 1.0 | 2.0 | 0.00 | 0.00 | 0.00 | 55 | 1007.6 |
| 20260905180852 | 72 | 98 | 0.0 | 2.0 | 0.00 | 0.00 | 0.00 | 55 | 1007.4 |
| 20260905180352 | 73 | 96 | 1.0 | 1.0 | 0.00 | 0.00 | 0.00 | 53 | 1007.4 |
| 20260905180051 | 73 | 98 | 0.0 | 0.0 | 0.00 | 0.00 | 0.00 | 50 | 1006.9 |
| 20260905175850 | 74 | 98 | 0.0 | 0.0 | 0.00 | 0.00 | 0.00 | 50 | 1007.4 |
| 20260905175348 | 73 | 223 | 0.0 | 2.0 | 0.00 | 0.00 | 0.00 | 53 | 1007.3 |
| 20260905174838 | 73 | 226 | 0.0 | 2.0 | 0.00 | 0.00 | 0.00 | 52 | 1007.4 |
| 20260905174539 | 72 | 259 | 0.0 | 2.0 | 0.00 | 0.00 | 0.00 | 53 | 1006.9 |
| 20260905174338 | 73 | 174 | 0.0 | 1.0 | 0.00 | 0.00 | 0.00 | 53 | 1007.3 |
| 20260905173852 | 73 | 259 | 1.0 | 2.0 | 0.00 | 0.00 | 0.00 | 52 | 1007.3 |
| 20260905173351 | 73 | 271 | 0.0 | 3.0 | 0.00 | 0.00 | 0.00 | 55 | 1007.3 |
| 20260905173050 | 72 | 293 | 0.0 | 3.0 | 0.00 | 0.00 | 0.00 | 54 | 1006.9 |
| 20260905172845 | 72 | 78 | 1.0 | 3.0 | 0.00 | 0.00 | 0.00 | 57 | 1007.4 |
| 20260905172344 | 72 | 229 | 0.0 | 3.0 | 0.00 | 0.00 | 0.00 | 57 | 1007.3 |
| 20260905171859 | 71 | 243 | 0.0 | 0.0 | 0.00 | 0.00 | 0.00 | 57 | 1007.3 |
| 20260905171538 | 71 | 165 | 0.0 | 0.0 | 0.00 | 0.00 | 0.00 | 57 | 1006.8 |
| 20260905171337 | 71 | 251 | 0.0 | 0.0 | 0.00 | 0.00 | 0.00 | 59 | 1007.3 |
| 20260905170853 | 70 | 258 | 0.0 | 1.0 | 0.00 | 0.00 | 0.00 | 61 | 1007.3 |
| 20260905170411 | 70 | 136 | 0.0 | 1.0 | 0.00 | 0.00 | 0.00 | 61 | 1007.4 |
| 20260905170010 | 69 | 136 | 0.0 | 1.0 | 0.00 | 0.00 | 0.00 | 62 | 1006.8 |
| 20260905165909 | 69 | 256 | 0.0 | 1.0 | 0.00 | 0.00 | 0.00 | 60 | 1007.5 |
| 20260905165348 | 69 | 212 | 0.0 | 1.0 | 0.00 | 0.00 | 0.00 | 65 | 1007.6 |
| 20260905164837 | 68 | 268 | 0.0 | 1.0 | 0.00 | 0.00 | 0.00 | 64 | 1007.6 |
| 20260905164538 | 67 | 290 | 0.0 | 1.0 | 0.00 | 0.00 | 0.00 | 64 | 1007.0 |
| 20260905164337 | 68 | 293 | 0.0 | 1.0 | 0.00 | 0.00 | 0.00 | 65 | 1007.5 |
| 20260905163848 | 68 | 265 | 0.0 | 1.0 | 0.00 | 0.00 | 0.00 | 64 | 1007.4 |
| 20260905163347 | 68 | 352 | 0.0 | 3.0 | 0.00 | 0.00 | 0.00 | 63 | 1007.5 |
| 20260905163045 | 68 | 352 | 0.0 | 3.0 | 0.00 | 0.00 | 0.00 | 62 | 1007.0 |
| 20260905162844 | 69 | 252 | 0.0 | 3.0 | 0.00 | 0.00 | 0.00 | 62 | 1007.6 |
| 20260905162346 | 69 | 33 | 1.0 | 3.0 | 0.00 | 0.00 | 0.00 | 60 | 1007.6 |
| 20260905161840 | 71 | 279 | 1.0 | 3.0 | 0.00 | 0.00 | 0.00 | 61 | 1007.6 |
| 20260905161556 | 71 | 285 | 0.0 | 2.0 | 0.00 | 0.00 | 0.00 | 60 | 1006.9 |
| 20260905161340 | 71 | 76 | 0.0 | 2.0 | 0.00 | 0.00 | 0.00 | 59 | 1007.5 |
| 20260905160833 | 73 | 270 | 1.0 | 2.0 | 0.00 | 0.00 | 0.00 | 56 | 1007.4 |
| 20260905160355 | 73 | 120 | 0.0 | 3.0 | 0.00 | 0.00 | 0.00 | 55 | 1007.4 |
| 20260905160051 | 73 | 250 | 0.0 | 3.0 | 0.00 | 0.00 | 0.00 | 54 | 1006.9 |
| 20260905155850 | 73 | 224 | 1.0 | 3.0 | 0.00 | 0.00 | 0.00 | 54 | 1007.4 |
| 20260905155345 | 73 | 110 | 0.0 | 3.0 | 0.00 | 0.00 | 0.00 | 54 | 1007.5 |
| 20260905154841 | 73 | 168 | 1.0 | 3.0 | 0.00 | 0.00 | 0.00 | 54 | 1007.6 |
| 20260905154543 | 72 | 146 | 0.0 | 3.0 | 0.00 | 0.00 | 0.00 | 54 | 1006.9 |
| 20260905154341 | 73 | 276 | 1.0 | 3.0 | 0.00 | 0.00 | 0.00 | 56 | 1007.4 |
| 20260905153859 | 72 | 288 | 0.0 | 2.0 | 0.00 | 0.00 | 0.00 | 57 | 1007.4 |
| 20260905153355 | 72 | 118 | 0.0 | 2.0 | 0.00 | 0.00 | 0.00 | 56 | 1007.6 |
| 20260905153053 | 71 | 283 | 0.0 | 2.0 | 0.00 | 0.00 | 0.00 | 57 | 1007.0 |
| 20260905152851 | 71 | 69 | 1.0 | 2.0 | 0.00 | 0.00 | 0.00 | 59 | 1007.5 |
| 20260905152352 | 71 | 108 | 0.0 | 3.0 | 0.00 | 0.00 | 0.00 | 58 | 1007.5 |
| 20260905151844 | 71 | 75 | 1.0 | 3.0 | 0.00 | 0.00 | 0.00 | 58 | 1007.6 |
| 20260905151505 | 71 | 285 | 0.0 | 3.0 | 0.00 | 0.00 | 0.00 | 57 | 1007.0 |
| 20260905151346 | 71 | 120 | 1.0 | 2.0 | 0.00 | 0.00 | 0.00 | 57 | 1007.5 |
| 20260905150854 | 71 | 150 | 0.0 | 2.0 | 0.00 | 0.00 | 0.00 | 57 | 1007.6 |
| 20260905150336 | 70 | 230 | 0.0 | 3.0 | 0.00 | 0.00 | 0.00 | 58 | 1007.5 |
| 20260905150034 | 70 | 264 | 0.0 | 3.0 | 0.00 | 0.00 | 0.00 | 58 | 1006.9 |
| 20260905145933 | 70 | 40 | 0.0 | 3.0 | 0.00 | 0.00 | 0.00 | 58 | 1007.4 |
| 20260905145347 | 70 | 122 | 0.0 | 3.0 | 0.00 | 0.00 | 0.00 | 59 | 1007.6 |
| 20260905144840 | 70 | 285 | 0.0 | 2.0 | 0.00 | 0.00 | 0.00 | 58 | 1007.7 |
| 20260905144502 | 69 | 183 | 0.0 | 5.0 | 0.00 | 0.00 | 0.00 | 58 | 1007.0 |
| 20260905144401 | 69 | 257 | 1.0 | 5.0 | 0.00 | 0.00 | 0.00 | 58 | 1007.7 |
| 20260905143834 | 69 | 255 | 1.0 | 5.0 | 0.00 | 0.00 | 0.00 | 59 | 1007.7 |
| 20260905143355 | 69 | 249 | 1.0 | 3.0 | 0.00 | 0.00 | 0.00 | 59 | 1007.6 |
| 20260905143046 | 69 | 271 | 0.0 | 7.0 | 0.00 | 0.00 | 0.00 | 59 | 1007.1 |
| 20260905142839 | 69 | 290 | 1.0 | 7.0 | 0.00 | 0.00 | 0.00 | 57 | 1007.7 |
| 20260905142339 | 69 | 224 | 2.0 | 7.0 | 0.00 | 0.00 | 0.00 | 58 | 1007.7 |
| 20260905141837 | 68 | 98 | 0.0 | 4.0 | 0.00 | 0.00 | 0.00 | 60 | 1007.7 |
| 20260905141539 | 68 | 87 | 0.0 | 5.0 | 0.00 | 0.00 | 0.00 | 60 | 1007.2 |
| 20260905141337 | 68 | 87 | 0.0 | 5.0 | 0.00 | 0.00 | 0.00 | 60 | 1007.7 |
| 20260905140854 | 68 | 281 | 1.0 | 5.0 | 0.00 | 0.00 | 0.00 | 60 | 1007.9 |
| 20260905140352 | 68 | 243 | 0.0 | 6.0 | 0.00 | 0.00 | 0.00 | 60 | 1007.8 |
| 20260905140050 | 67 | 68 | 0.0 | 6.0 | 0.00 | 0.00 | 0.00 | 60 | 1007.2 |
| 20260905135846 | 68 | 340 | 2.0 | 6.0 | 0.00 | 0.00 | 0.00 | 58 | 1007.8 |
| 20260905135345 | 68 | 129 | 1.0 | 3.0 | 0.00 | 0.00 | 0.00 | 59 | 1007.6 |
| 20260905134852 | 67 | 207 | 0.0 | 2.0 | 0.00 | 0.00 | 0.00 | 60 | 1007.6 |
| 20260905134555 | 67 | 220 | 0.0 | 2.0 | 0.00 | 0.00 | 0.00 | 59 | 1007.0 |
| 20260905134353 | 67 | 245 | 0.0 | 3.0 | 0.00 | 0.00 | 0.00 | 60 | 1007.5 |
| 20260905133847 | 67 | 74 | 0.0 | 3.0 | 0.00 | 0.00 | 0.00 | 59 | 1007.5 |
| 20260905133346 | 66 | 245 | 0.0 | 2.0 | 0.00 | 0.00 | 0.00 | 60 | 1007.4 |
| 20260905133004 | 66 | 281 | 0.0 | 2.0 | 0.00 | 0.00 | 0.00 | 60 | 1006.8 |
| 20260905132903 | 66 | 264 | 1.0 | 2.0 | 0.00 | 0.00 | 0.00 | 61 | 1007.3 |
| 20260905132345 | 66 | 274 | 1.0 | 2.0 | 0.00 | 0.00 | 0.00 | 60 | 1007.4 |
| 20260905131841 | 66 | 242 | 0.0 | 3.0 | 0.00 | 0.00 | 0.00 | 59 | 1007.3 |
| 20260905131543 | 65 | 241 | 0.0 | 3.0 | 0.00 | 0.00 | 0.00 | 59 | 1006.7 |
| 20260905131342 | 65 | 34 | 1.0 | 3.0 | 0.00 | 0.00 | 0.00 | 60 | 1007.2 |
| 20260905130900 | 65 | 260 | 0.0 | 3.0 | 0.00 | 0.00 | 0.00 | 60 | 1007.1 |
| 20260905130340 | 65 | 104 | 0.0 | 3.0 | 0.00 | 0.00 | 0.00 | 59 | 1007.0 |
| 20260905130018 | 64 | 301 | 0.0 | 3.0 | 0.00 | 0.00 | 0.00 | 59 | 1006.5 |
| 20260905125915 | 65 | 283 | 0.0 | 5.0 | 0.00 | 0.00 | 0.00 | 59 | 1007.0 |
| 20260905125349 | 65 | 197 | 0.0 | 5.0 | 0.00 | 0.00 | 0.00 | 60 | 1007.1 |
| 20260905124837 | 64 | 242 | 1.0 | 2.0 | 0.00 | 0.00 | 0.00 | 60 | 1007.1 |
| 20260905124514 | 64 | 34 | 0.0 | 2.0 | 0.00 | 0.00 | 0.00 | 60 | 1006.5 |
| 20260905124352 | 64 | 30 | 0.0 | 2.0 | 0.00 | 0.00 | 0.00 | 60 | 1007.0 |
| 20260905123846 | 64 | 79 | 0.0 | 3.0 | 0.00 | 0.00 | 0.00 | 60 | 1007.1 |
| 20260905123347 | 64 | 87 | 1.0 | 3.0 | 0.00 | 0.00 | 0.00 | 60 | 1006.8 |
| 20260905123047 | 64 | 232 | 0.0 | 3.0 | 0.00 | 0.00 | 0.00 | 60 | 1006.3 |
| 20260905122846 | 64 | 280 | 1.0 | 3.0 | 0.00 | 0.00 | 0.00 | 60 | 1006.7 |
| 20260905122347 | 64 | 258 | 1.0 | 3.0 | 0.00 | 0.00 | 0.00 | 59 | 1006.7 |
| 20260905121842 | 64 | 121 | 0.0 | 4.0 | 0.00 | 0.00 | 0.00 | 59 | 1006.7 |
| 20260905121542 | 63 | 201 | 0.0 | 4.0 | 0.00 | 0.00 | 0.00 | 59 | 1006.1 |
| 20260905121341 | 64 | 328 | 1.0 | 4.0 | 0.00 | 0.00 | 0.00 | 60 | 1006.7 |
| 20260905120838 | 64 | 333 | 1.0 | 4.0 | 0.00 | 0.00 | 0.00 | 59 | 1006.6 |
| 20260905120337 | 64 | 228 | 0.0 | 3.0 | 0.00 | 0.00 | 0.00 | 59 | 1006.7 |
| 20260905120052 | 63 | 162 | 0.0 | 3.0 | 0.00 | 0.00 | 0.00 | 59 | 1006.1 |
| 20260905115850 | 64 | 255 | 0.0 | 3.0 | 0.00 | 0.00 | 0.00 | 59 | 1006.5 |
| 20260905115409 | 63 | 272 | 1.0 | 5.0 | 0.00 | 0.00 | 0.00 | 60 | 1006.5 |
| 20260905114843 | 63 | 229 | 0.0 | 5.0 | 0.00 | 0.00 | 0.00 | 60 | 1006.6 |
| 20260905114545 | 62 | 262 | 1.0 | 5.0 | 0.00 | 0.00 | 0.00 | 60 | 1005.9 |
| 20260905114343 | 63 | 323 | 1.0 | 5.0 | 0.00 | 0.00 | 0.00 | 60 | 1006.5 |
| 20260905113839 | 63 | 290 | 0.0 | 5.0 | 0.00 | 0.00 | 0.00 | 60 | 1006.4 |
| 20260905113339 | 63 | 115 | 1.0 | 5.0 | 0.00 | 0.00 | 0.00 | 60 | 1006.4 |
| 20260905113055 | 62 | 98 | 0.0 | 5.0 | 0.00 | 0.00 | 0.00 | 60 | 1005.9 |
| 20260905112854 | 63 | 133 | 1.0 | 5.0 | 0.00 | 0.00 | 0.00 | 60 | 1006.3 |
| 20260905112353 | 62 | 241 | 1.0 | 4.0 | 0.00 | 0.00 | 0.00 | 60 | 1006.4 |
| 20260905111843 | 62 | 297 | 2.0 | 4.0 | 0.00 | 0.00 | 0.00 | 61 | 1006.4 |
| 20260905111608 | 62 | 85 | 0.0 | 4.0 | 0.00 | 0.00 | 0.00 | 61 | 1005.8 |
| 20260905111358 | 62 | 229 | 1.0 | 4.0 | 0.00 | 0.00 | 0.00 | 61 | 1006.3 |
| 20260905110849 | 62 | 263 | 1.0 | 3.0 | 0.00 | 0.00 | 0.00 | 61 | 1006.3 |
| 20260905110348 | 61 | 278 | 0.0 | 3.0 | 0.00 | 0.00 | 0.00 | 61 | 1006.4 |
| 20260905110051 | 61 | 203 | 0.0 | 3.0 | 0.00 | 0.00 | 0.00 | 61 | 1005.8 |
| 20260905105845 | 61 | 274 | 0.0 | 3.0 | 0.00 | 0.00 | 0.00 | 61 | 1006.3 |
| 20260905105344 | 61 | 104 | 0.0 | 3.0 | 0.00 | 0.00 | 0.00 | 61 | 1006.2 |
| 20260905104843 | 61 | 314 | 0.0 | 3.0 | 0.00 | 0.00 | 0.00 | 61 | 1006.3 |
| 20260905104555 | 61 | 109 | 0.0 | 4.0 | 0.00 | 0.00 | 0.00 | 61 | 1005.9 |
| 20260905104343 | 61 | 248 | 0.0 | 4.0 | 0.00 | 0.00 | 0.00 | 61 | 1006.2 |
| 20260905103840 | 61 | 346 | 0.0 | 3.0 | 0.00 | 0.00 | 0.00 | 61 | 1006.2 |
| 20260905103338 | 61 | 347 | 0.0 | 2.0 | 0.00 | 0.00 | 0.00 | 61 | 1006.3 |
| 20260905103010 | 61 | 153 | 0.0 | 2.0 | 0.00 | 0.00 | 0.00 | 61 | 1005.8 |
| 20260905102909 | 61 | 269 | 0.0 | 2.0 | 0.00 | 0.00 | 0.00 | 61 | 1006.3 |
| 20260905102345 | 61 | 262 | 0.0 | 2.0 | 0.00 | 0.00 | 0.00 | 61 | 1006.3 |
| 20260905101837 | 62 | 136 | 0.0 | 2.0 | 0.00 | 0.00 | 0.00 | 61 | 1006.2 |
| 20260905101538 | 61 | 128 | 0.0 | 2.0 | 0.00 | 0.00 | 0.00 | 61 | 1005.7 |
| 20260905101337 | 62 | 118 | 0.0 | 2.0 | 0.00 | 0.00 | 0.00 | 61 | 1006.3 |
| 20260905100851 | 62 | 343 | 0.0 | 2.0 | 0.00 | 0.00 | 0.00 | 61 | 1006.2 |
| 20260905100410 | 62 | 134 | 1.0 | 3.0 | 0.00 | 0.00 | 0.00 | 61 | 1006.2 |
| 20260905100044 | 61 | 295 | 0.0 | 3.0 | 0.00 | 0.00 | 0.00 | 61 | 1005.6 |
| 20260905095843 | 62 | 260 | 1.0 | 3.0 | 0.00 | 0.00 | 0.00 | 61 | 1006.1 |
| 20260905095343 | 62 | 254 | 0.0 | 3.0 | 0.00 | 0.00 | 0.00 | 61 | 1006.1 |
| 20260905094838 | 62 | 254 | 1.0 | 3.0 | 0.00 | 0.00 | 0.00 | 61 | 1006.0 |
| 20260905094539 | 62 | 216 | 0.0 | 4.0 | 0.00 | 0.00 | 0.00 | 60 | 1005.6 |
| 20260905094337 | 62 | 252 | 0.0 | 4.0 | 0.00 | 0.00 | 0.00 | 60 | 1006.0 |
| 20260905093855 | 63 | 200 | 0.0 | 4.0 | 0.00 | 0.00 | 0.00 | 60 | 1006.0 |
| 20260905093415 | 63 | 147 | 0.0 | 2.0 | 0.00 | 0.00 | 0.00 | 60 | 1005.8 |
| 20260905093050 | 62 | 177 | 0.0 | 2.0 | 0.00 | 0.00 | 0.00 | 60 | 1005.3 |
| 20260905092849 | 63 | 264 | 0.0 | 3.0 | 0.00 | 0.00 | 0.00 | 59 | 1005.8 |
| 20260905092410 | 63 | 112 | 0.0 | 3.0 | 0.00 | 0.00 | 0.00 | 60 | 1005.8 |
| 20260905091844 | 63 | 89 | 1.0 | 4.0 | 0.00 | 0.00 | 0.00 | 60 | 1005.8 |
| 20260905091605 | 62 | 243 | 0.0 | 4.0 | 0.00 | 0.00 | 0.00 | 59 | 1005.1 |
| 20260905091345 | 63 | 316 | 1.0 | 4.0 | 0.00 | 0.00 | 0.00 | 60 | 1005.7 |
| 20260905090838 | 63 | 256 | 0.0 | 3.0 | 0.00 | 0.00 | 0.00 | 60 | 1005.7 |
| 20260905090338 | 62 | 334 | 1.0 | 3.0 | 0.00 | 0.00 | 0.00 | 60 | 1005.7 |
| 20260905090052 | 62 | 278 | 0.0 | 3.0 | 0.00 | 0.00 | 0.00 | 60 | 1005.1 |
| 20260905085851 | 62 | 272 | 0.0 | 3.0 | 0.00 | 0.01 | 0.00 | 60 | 1005.6 |
| 20260905085350 | 62 | 238 | 1.0 | 3.0 | 0.00 | 0.01 | 0.00 | 60 | 1005.6 |
| 20260905084847 | 62 | 51 | 1.0 | 3.0 | 0.00 | 0.01 | 0.00 | 60 | 1005.6 |
| 20260905084606 | 62 | 235 | 0.0 | 3.0 | 0.00 | 0.01 | 0.00 | 60 | 1005.1 |
| 20260905084346 | 62 | 84 | 1.0 | 3.0 | 0.00 | 0.01 | 0.00 | 60 | 1005.6 |
| 20260905083844 | 62 | 267 | 1.0 | 3.0 | 0.00 | 0.01 | 0.00 | 60 | 1005.7 |
| 20260905083344 | 61 | 293 | 0.0 | 4.0 | 0.00 | 0.01 | 0.00 | 61 | 1005.6 |
| 20260905083043 | 60 | 136 | 0.0 | 4.0 | 0.00 | 0.01 | 0.00 | 61 | 1005.0 |
| 20260905082842 | 61 | 266 | 1.0 | 4.0 | 0.00 | 0.01 | 0.00 | 61 | 1005.6 |
| 20260905082344 | 61 | 82 | 0.0 | 1.0 | 0.00 | 0.01 | 0.00 | 62 | 1005.7 |
| 20260905081838 | 61 | 126 | 0.0 | 2.0 | 0.00 | 0.01 | 0.00 | 62 | 1005.7 |
| 20260905081539 | 61 | 122 | 0.0 | 2.0 | 0.00 | 0.01 | 0.00 | 62 | 1005.1 |
| 20260905081337 | 61 | 122 | 0.0 | 2.0 | 0.00 | 0.01 | 0.00 | 62 | 1005.7 |
| 20260905080854 | 61 | 158 | 0.0 | 1.0 | 0.00 | 0.01 | 0.00 | 62 | 1005.7 |
| 20260905080333 | 61 | 180 | 0.0 | 1.0 | 0.00 | 0.01 | 0.00 | 62 | 1005.7 |
| 20260905080049 | 61 | 196 | 0.0 | 1.0 | 0.00 | 0.01 | 0.00 | 62 | 1005.2 |
| 20260905075847 | 61 | 197 | 0.0 | 1.0 | 0.00 | 0.01 | 0.00 | 61 | 1005.7 |
| 20260905075348 | 62 | 198 | 0.0 | 2.0 | 0.00 | 0.01 | 0.00 | 61 | 1005.7 |
| 20260905074845 | 62 | 150 | 0.0 | 2.0 | 0.00 | 0.01 | 0.00 | 61 | 1005.7 |
| 20260905074551 | 62 | 221 | 0.0 | 2.0 | 0.00 | 0.01 | 0.00 | 61 | 1005.2 |
| 20260905074344 | 62 | 158 | 1.0 | 2.0 | 0.00 | 0.01 | 0.00 | 61 | 1005.7 |
| 20260905073352 | 63 | 134 | 0.0 | 5.0 | 0.00 | 0.01 | 0.00 | 60 | 1005.7 |
| 20260905073049 | 62 | 259 | 1.0 | 5.0 | 0.00 | 0.01 | 0.00 | 60 | 1005.1 |
| 20260905072848 | 63 | 324 | 1.0 | 5.0 | 0.00 | 0.01 | 0.00 | 60 | 1005.7 |
| 20260905072339 | 63 | 277 | 1.0 | 5.0 | 0.00 | 0.01 | 0.00 | 59 | 1005.7 |
| 20260905071844 | 63 | 234 | 1.0 | 9.0 | 0.00 | 0.01 | 0.00 | 59 | 1005.7 |
| 20260905071547 | 62 | 292 | 1.0 | 9.0 | 0.00 | 0.01 | 0.00 | 59 | 1005.1 |
| 20260905071343 | 63 | 109 | 1.0 | 9.0 | 0.00 | 0.01 | 0.00 | 59 | 1005.8 |
| 20260905070837 | 62 | 273 | 1.0 | 6.0 | 0.00 | 0.01 | 0.00 | 59 | 1005.8 |
| 20260905070337 | 62 | 351 | 1.0 | 2.0 | 0.00 | 0.01 | 0.00 | 60 | 1005.9 |
| 20260905070100 | 61 | 120 | 0.0 | 1.0 | 0.00 | 0.01 | 0.00 | 60 | 1005.4 |
| 20260905065833 | 62 | 200 | 0.0 | 1.0 | 0.00 | 0.01 | 0.00 | 60 | 1006.0 |
| 20260905065334 | 62 | 133 | 0.0 | 2.0 | 0.00 | 0.01 | 0.00 | 60 | 1006.1 |
| 20260905064911 | 62 | 250 | 0.0 | 2.0 | 0.00 | 0.01 | 0.00 | 59 | 1006.2 |
| 20260905064551 | 61 | 257 | 0.0 | 2.0 | 0.00 | 0.01 | 0.00 | 59 | 1005.7 |
| 20260905064351 | 62 | 247 | 0.0 | 2.0 | 0.00 | 0.01 | 0.00 | 59 | 1006.2 |
| 20260905063848 | 62 | 232 | 0.0 | 2.0 | 0.00 | 0.01 | 0.00 | 59 | 1006.2 |
| 20260905063347 | 61 | 95 | 0.0 | 2.0 | 0.00 | 0.01 | 0.00 | 60 | 1006.3 |
| 20260905063047 | 60 | 295 | 0.0 | 2.0 | 0.00 | 0.01 | 0.00 | 60 | 1005.7 |
| 20260905062846 | 61 | 132 | 0.0 | 2.0 | 0.00 | 0.01 | 0.00 | 60 | 1006.2 |
| 20260905062345 | 60 | 245 | 0.0 | 2.0 | 0.00 | 0.01 | 0.00 | 60 | 1006.4 |
| 20260905061843 | 60 | 257 | 0.0 | 0.0 | 0.00 | 0.01 | 0.00 | 61 | 1006.4 |
| 20260905061541 | 60 | 257 | 0.0 | 0.0 | 0.00 | 0.01 | 0.00 | 62 | 1005.9 |
| 20260905061340 | 60 | 257 | 0.0 | 0.0 | 0.00 | 0.01 | 0.00 | 62 | 1006.5 |
| 20260905060838 | 60 | 257 | 0.0 | 0.0 | 0.00 | 0.01 | 0.00 | 63 | 1006.4 |
| 20260905060337 | 61 | 257 | 0.0 | 0.0 | 0.00 | 0.01 | 0.00 | 63 | 1006.6 |
| 20260905060051 | 60 | 257 | 0.0 | 0.0 | 0.00 | 0.01 | 0.00 | 63 | 1006.1 |
| 20260905055850 | 61 | 257 | 0.0 | 0.0 | 0.00 | 0.01 | 0.00 | 63 | 1006.6 |
| 20260905055349 | 61 | 257 | 0.0 | 0.0 | 0.00 | 0.01 | 0.00 | 63 | 1006.7 |
| 20260905054848 | 61 | 257 | 0.0 | 0.0 | 0.00 | 0.01 | 0.00 | 63 | 1006.7 |
| 20260905054557 | 60 | 257 | 0.0 | 0.0 | 0.00 | 0.01 | 0.00 | 63 | 1006.1 |
| 20260905054347 | 61 | 257 | 0.0 | 0.0 | 0.00 | 0.01 | 0.00 | 63 | 1006.7 |
| 20260905053843 | 61 | 257 | 0.0 | 0.0 | 0.00 | 0.01 | 0.00 | 65 | 1006.7 |
| 20260905053342 | 62 | 181 | 0.0 | 0.0 | 0.00 | 0.01 | 0.00 | 65 | 1006.8 |
| 20260905053044 | 61 | 181 | 0.0 | 0.0 | 0.00 | 0.01 | 0.00 | 65 | 1006.3 |
| 20260905052840 | 62 | 181 | 0.0 | 0.0 | 0.00 | 0.01 | 0.00 | 65 | 1006.8 |
| 20260905052341 | 62 | 181 | 0.0 | 0.0 | 0.00 | 0.01 | 0.00 | 65 | 1006.8 |
| 20260905051838 | 62 | 181 | 0.0 | 0.0 | 0.00 | 0.01 | 0.00 | 64 | 1006.8 |
| 20260905051553 | 62 | 181 | 0.0 | 0.0 | 0.00 | 0.01 | 0.00 | 64 | 1006.3 |
| 20260905050850 | 62 | 181 | 0.0 | 0.0 | 0.00 | 0.01 | 0.00 | 64 | 1006.8 |
| 20260905050049 | 62 | 177 | 0.0 | 0.0 | 0.00 | 0.01 | 0.00 | 64 | 1006.4 |
| 20260905045846 | 63 | 177 | 0.0 | 0.0 | 0.00 | 0.01 | 0.00 | 64 | 1006.9 |
| 20260905045344 | 63 | 177 | 0.0 | 1.0 | 0.00 | 0.01 | 0.00 | 63 | 1006.8 |
| 20260905044842 | 63 | 177 | 0.0 | 2.0 | 0.00 | 0.01 | 0.00 | 63 | 1006.7 |
| 20260905044543 | 63 | 177 | 0.0 | 2.0 | 0.00 | 0.01 | 0.00 | 63 | 1006.2 |
| 20260905044342 | 63 | 275 | 0.0 | 1.0 | 0.00 | 0.01 | 0.00 | 63 | 1006.7 |
| 20260905043859 | 63 | 283 | 0.0 | 2.0 | 0.00 | 0.01 | 0.00 | 63 | 1006.7 |
| 20260905043337 | 63 | 283 | 0.0 | 2.0 | 0.00 | 0.01 | 0.00 | 64 | 1006.5 |
| 20260905043055 | 62 | 250 | 0.0 | 0.0 | 0.00 | 0.01 | 0.00 | 64 | 1006.1 |
| 20260905042854 | 62 | 248 | 0.0 | 0.0 | 0.00 | 0.01 | 0.00 | 65 | 1006.5 |
| 20260905042349 | 62 | 261 | 0.0 | 0.0 | 0.00 | 0.01 | 0.00 | 65 | 1006.6 |
| 20260905041906 | 62 | 261 | 0.0 | 0.0 | 0.00 | 0.01 | 0.00 | 65 | 1006.6 |
| 20260905041554 | 62 | 261 | 0.0 | 0.0 | 0.00 | 0.01 | 0.00 | 65 | 1006.1 |
| 20260905041345 | 63 | 261 | 0.0 | 0.0 | 0.00 | 0.01 | 0.00 | 65 | 1006.8 |
| 20260905040842 | 63 | 261 | 0.0 | 0.0 | 0.00 | 0.01 | 0.00 | 65 | 1006.7 |
| 20260905040403 | 63 | 261 | 0.0 | 0.0 | 0.00 | 0.01 | 0.00 | 65 | 1006.7 |
| 20260905040041 | 63 | 261 | 0.0 | 0.0 | 0.00 | 0.01 | 0.01 | 65 | 1006.2 |
| 20260905035840 | 63 | 261 | 0.0 | 0.0 | 0.00 | 0.01 | 0.01 | 65 | 1006.7 |
| 20260905035341 | 64 | 261 | 0.0 | 0.0 | 0.00 | 0.01 | 0.01 | 65 | 1006.7 |
| 20260905034836 | 64 | 261 | 0.0 | 0.0 | 0.00 | 0.01 | 0.01 | 64 | 1006.6 |
| 20260905034540 | 63 | 261 | 0.0 | 0.0 | 0.00 | 0.01 | 0.01 | 64 | 1006.0 |
| 20260905034336 | 64 | 261 | 0.0 | 0.0 | 0.00 | 0.01 | 0.01 | 64 | 1006.5 |
| 20260905033853 | 64 | 261 | 0.0 | 0.0 | 0.00 | 0.01 | 0.01 | 64 | 1006.6 |
| 20260905033348 | 65 | 261 | 0.0 | 0.0 | 0.00 | 0.01 | 0.01 | 63 | 1006.6 |
| 20260905033052 | 64 | 261 | 0.0 | 0.0 | 0.00 | 0.01 | 0.01 | 62 | 1006.1 |
| 20260905032844 | 65 | 261 | 0.0 | 0.0 | 0.00 | 0.01 | 0.01 | 62 | 1006.7 |
| 20260905032403 | 65 | 261 | 0.0 | 1.0 | 0.00 | 0.01 | 0.01 | 62 | 1006.7 |
| 20260905031840 | 65 | 261 | 0.0 | 1.0 | 0.00 | 0.01 | 0.01 | 62 | 1006.7 |
| 20260905031547 | 65 | 261 | 0.0 | 0.0 | 0.00 | 0.01 | 0.01 | 61 | 1006.1 |
| 20260905031341 | 65 | 261 | 0.0 | 0.0 | 0.00 | 0.01 | 0.01 | 61 | 1006.7 |
| 20260905030857 | 65 | 261 | 0.0 | 1.0 | 0.00 | 0.01 | 0.01 | 61 | 1006.7 |
| 20260905030335 | 66 | 261 | 0.0 | 1.0 | 0.00 | 0.01 | 0.01 | 61 | 1006.7 |
| 20260905030054 | 65 | 261 | 0.0 | 1.0 | 0.00 | 0.01 | 0.01 | 60 | 1006.2 |
| 20260905025853 | 66 | 261 | 0.0 | 1.0 | 0.00 | 0.01 | 0.01 | 61 | 1006.7 |
| 20260905025352 | 66 | 214 | 0.0 | 1.0 | 0.00 | 0.01 | 0.01 | 60 | 1006.7 |
| 20260905024847 | 66 | 214 | 0.0 | 1.0 | 0.00 | 0.01 | 0.01 | 59 | 1006.7 |
| 20260905024543 | 66 | 207 | 0.0 | 1.0 | 0.00 | 0.01 | 0.01 | 60 | 1006.2 |
| 20260905023843 | 66 | 234 | 0.0 | 2.0 | 0.00 | 0.01 | 0.01 | 61 | 1006.7 |
| 20260905023342 | 66 | 158 | 0.0 | 2.0 | 0.00 | 0.01 | 0.01 | 60 | 1006.8 |
| 20260905023042 | 66 | 264 | 0.0 | 1.0 | 0.00 | 0.01 | 0.01 | 59 | 1006.3 |
| 20260905022840 | 66 | 273 | 0.0 | 2.0 | 0.00 | 0.01 | 0.01 | 59 | 1006.9 |
| 20260905022339 | 66 | 231 | 0.0 | 2.0 | 0.00 | 0.01 | 0.01 | 60 | 1006.8 |
| 20260905021855 | 66 | 245 | 0.0 | 2.0 | 0.00 | 0.01 | 0.01 | 61 | 1006.7 |
| 20260905021556 | 65 | 248 | 0.0 | 0.0 | 0.00 | 0.01 | 0.01 | 61 | 1006.2 |
| 20260905021353 | 65 | 241 | 0.0 | 0.0 | 0.00 | 0.01 | 0.01 | 62 | 1006.8 |
| 20260905020852 | 65 | 252 | 0.0 | 0.0 | 0.00 | 0.01 | 0.01 | 63 | 1006.9 |
| 20260905020349 | 65 | 257 | 0.0 | 0.0 | 0.00 | 0.01 | 0.01 | 63 | 1007.0 |
| 20260905020056 | 65 | 257 | 0.0 | 0.0 | 0.00 | 0.01 | 0.01 | 63 | 1006.5 |
| 20260905015847 | 65 | 224 | 0.0 | 0.0 | 0.00 | 0.01 | 0.01 | 63 | 1007.0 |
| 20260905015347 | 65 | 223 | 0.0 | 1.0 | 0.00 | 0.01 | 0.01 | 63 | 1007.0 |
| 20260905014841 | 66 | 223 | 0.0 | 1.0 | 0.00 | 0.01 | 0.01 | 63 | 1007.1 |
| 20260905014542 | 65 | 223 | 0.0 | 1.0 | 0.00 | 0.01 | 0.01 | 62 | 1006.6 |
| 20260905014341 | 66 | 223 | 0.0 | 0.0 | 0.00 | 0.01 | 0.01 | 62 | 1007.1 |
| 20260905013858 | 66 | 223 | 0.0 | 0.0 | 0.00 | 0.01 | 0.01 | 61 | 1007.0 |
| 20260905013336 | 66 | 223 | 0.0 | 0.0 | 0.00 | 0.01 | 0.01 | 61 | 1007.2 |
| 20260905013059 | 66 | 223 | 0.0 | 1.0 | 0.00 | 0.01 | 0.01 | 61 | 1006.7 |
| 20260905012853 | 67 | 223 | 0.0 | 1.0 | 0.00 | 0.01 | 0.01 | 61 | 1007.2 |
| 20260905012352 | 67 | 223 | 0.0 | 3.0 | 0.00 | 0.01 | 0.01 | 59 | 1007.2 |
| 20260905011908 | 67 | 233 | 1.0 | 3.0 | 0.00 | 0.01 | 0.01 | 58 | 1007.1 |
| 20260905011548 | 67 | 211 | 0.0 | 1.0 | 0.00 | 0.01 | 0.01 | 59 | 1006.5 |
| 20260905011347 | 68 | 181 | 0.0 | 2.0 | 0.00 | 0.01 | 0.01 | 59 | 1007.1 |
| 20260905010905 | 68 | 107 | 0.0 | 2.0 | 0.00 | 0.01 | 0.01 | 58 | 1007.1 |
| 20260905010339 | 68 | 63 | 0.0 | 2.0 | 0.00 | 0.01 | 0.01 | 58 | 1007.0 |
| 20260905010106 | 68 | 62 | 0.0 | 2.0 | 0.00 | 0.01 | 0.01 | 58 | 1006.4 |
| 20260905005852 | 68 | 172 | 0.0 | 2.0 | 0.00 | 0.01 | 0.01 | 58 | 1006.8 |
| 20260905005411 | 68 | 278 | 0.0 | 2.0 | 0.00 | 0.01 | 0.01 | 60 | 1007.0 |
| 20260905004536 | 67 | 222 | 0.0 | 1.0 | 0.00 | 0.01 | 0.01 | 59 | 1006.5 |
| 20260905004436 | 68 | 222 | 0.0 | 1.0 | 0.00 | 0.01 | 0.01 | 60 | 1007.0 |
| 20260905003847 | 69 | 352 | 0.0 | 4.0 | 0.00 | 0.01 | 0.01 | 58 | 1006.9 |
| 20260905003346 | 69 | 221 | 0.0 | 4.0 | 0.00 | 0.01 | 0.01 | 58 | 1007.0 |
| 20260905003044 | 68 | 65 | 0.0 | 4.0 | 0.00 | 0.01 | 0.01 | 58 | 1006.3 |
| 20260905002843 | 69 | 267 | 0.0 | 2.0 | 0.00 | 0.01 | 0.01 | 59 | 1006.9 |
| 20260905002343 | 69 | 275 | 0.0 | 2.0 | 0.00 | 0.01 | 0.01 | 56 | 1007.0 |
| 20260905001915 | 69 | 288 | 0.0 | 2.0 | 0.00 | 0.01 | 0.01 | 57 | 1007.0 |
| 20260905001534 | 68 | 323 | 0.0 | 2.0 | 0.00 | 0.01 | 0.01 | 57 | 1006.4 |
| 20260905001333 | 69 | 258 | 0.0 | 1.0 | 0.00 | 0.01 | 0.01 | 58 | 1007.0 |
| 20260905000910 | 69 | 259 | 0.0 | 2.0 | 0.00 | 0.01 | 0.01 | 57 | 1007.1 |
| 20260905000349 | 69 | 246 | 0.0 | 2.0 | 0.00 | 0.01 | 0.01 | 57 | 1007.1 |
| 20260905000048 | 69 | 248 | 0.0 | 2.0 | 0.00 | 0.01 | 0.01 | 56 | 1006.5 |
| 20260904235847 | 69 | 241 | 0.0 | 2.0 | 0.00 | 0.01 | 0.01 | 57 | 1007.0 |
| 20260904235347 | 70 | 49 | 0.0 | 1.0 | 0.00 | 0.01 | 0.01 | 59 | 1007.0 |
| 20260904234845 | 70 | 291 | 0.0 | 0.0 | 0.00 | 0.01 | 0.01 | 56 | 1006.9 |
| 20260904234550 | 69 | 56 | 0.0 | 1.0 | 0.00 | 0.01 | 0.01 | 56 | 1006.3 |
| 20260904234345 | 70 | 354 | 0.0 | 1.0 | 0.00 | 0.01 | 0.01 | 57 | 1006.7 |
| 20260904233902 | 70 | 315 | 0.0 | 2.0 | 0.00 | 0.01 | 0.01 | 57 | 1006.7 |
| 20260904233357 | 69 | 262 | 0.0 | 2.0 | 0.00 | 0.01 | 0.01 | 57 | 1006.7 |
| 20260904233054 | 69 | 286 | 0.0 | 2.0 | 0.00 | 0.01 | 0.01 | 58 | 1006.1 |
| 20260904232853 | 70 | 268 | 0.0 | 2.0 | 0.00 | 0.01 | 0.01 | 60 | 1006.7 |
| 20260904232352 | 69 | 282 | 0.0 | 0.0 | 0.00 | 0.01 | 0.01 | 61 | 1006.7 |
| 20260904231848 | 70 | 264 | 0.0 | 1.0 | 0.00 | 0.01 | 0.01 | 60 | 1006.6 |
| 20260904231549 | 70 | 266 | 0.0 | 1.0 | 0.00 | 0.01 | 0.01 | 58 | 1006.1 |
| 20260904231348 | 70 | 266 | 0.0 | 1.0 | 0.00 | 0.01 | 0.01 | 58 | 1006.6 |
| 20260904230845 | 71 | 269 | 0.0 | 0.0 | 0.00 | 0.01 | 0.01 | 58 | 1006.3 |
| 20260904230346 | 71 | 269 | 0.0 | 1.0 | 0.00 | 0.01 | 0.01 | 58 | 1006.4 |
| 20260904230005 | 71 | 269 | 0.0 | 1.0 | 0.00 | 0.01 | 0.01 | 56 | 1005.6 |
| 20260904225904 | 71 | 269 | 0.0 | 1.0 | 0.00 | 0.01 | 0.01 | 57 | 1006.2 |
| 20260904225343 | 72 | 269 | 0.0 | 0.0 | 0.00 | 0.01 | 0.01 | 56 | 1006.4 |
| 20260904224837 | 72 | 283 | 0.0 | 0.0 | 0.00 | 0.01 | 0.01 | 56 | 1006.2 |
| 20260904224536 | 72 | 283 | 0.0 | 0.0 | 0.00 | 0.01 | 0.01 | 56 | 1005.6 |
| 20260904224333 | 73 | 283 | 0.0 | 0.0 | 0.00 | 0.01 | 0.01 | 56 | 1006.3 |
| 20260904223850 | 73 | 283 | 0.0 | 0.0 | 0.00 | 0.01 | 0.01 | 54 | 1006.3 |
| 20260904223348 | 74 | 283 | 0.0 | 1.0 | 0.00 | 0.01 | 0.01 | 54 | 1006.4 |
| 20260904223045 | 74 | 283 | 0.0 | 1.0 | 0.00 | 0.01 | 0.01 | 51 | 1005.7 |
| 20260904222843 | 75 | 283 | 0.0 | 1.0 | 0.00 | 0.01 | 0.01 | 50 | 1006.4 |
| 20260904222342 | 76 | 66 | 0.0 | 1.0 | 0.00 | 0.01 | 0.01 | 49 | 1006.4 |
| 20260904221902 | 77 | 323 | 0.0 | 1.0 | 0.00 | 0.01 | 0.01 | 48 | 1006.3 |
| 20260904221544 | 76 | 297 | 0.0 | 3.0 | 0.00 | 0.01 | 0.01 | 47 | 1005.7 |
| 20260904221340 | 77 | 288 | 0.0 | 3.0 | 0.00 | 0.01 | 0.01 | 45 | 1006.3 |
| 20260904220840 | 78 | 235 | 1.0 | 3.0 | 0.00 | 0.01 | 0.01 | 47 | 1006.3 |
| 20260904220401 | 79 | 260 | 0.0 | 2.0 | 0.00 | 0.01 | 0.01 | 47 | 1006.2 |
| 20260904220011 | 78 | 272 | 0.0 | 1.0 | 0.00 | 0.01 | 0.01 | 48 | 1005.7 |
| 20260904215910 | 79 | 272 | 0.0 | 1.0 | 0.00 | 0.01 | 0.01 | 48 | 1006.3 |
| 20260904215348 | 78 | 265 | 0.0 | 1.0 | 0.00 | 0.01 | 0.01 | 47 | 1006.3 |
| 20260904214844 | 78 | 266 | 0.0 | 1.0 | 0.00 | 0.01 | 0.01 | 46 | 1006.3 |
| 20260904214548 | 78 | 266 | 0.0 | 2.0 | 0.00 | 0.01 | 0.01 | 46 | 1005.7 |
| 20260904214344 | 79 | 266 | 0.0 | 2.0 | 0.00 | 0.01 | 0.01 | 46 | 1006.3 |
| 20260904213843 | 80 | 266 | 0.0 | 2.0 | 0.00 | 0.01 | 0.01 | 45 | 1006.3 |
| 20260904213343 | 81 | 309 | 0.0 | 1.0 | 0.00 | 0.01 | 0.01 | 41 | 1006.2 |
| 20260904213039 | 80 | 259 | 0.0 | 1.0 | 0.00 | 0.01 | 0.01 | 43 | 1005.6 |
| 20260904212837 | 81 | 309 | 0.0 | 1.0 | 0.00 | 0.01 | 0.01 | 42 | 1006.2 |
| 20260904212357 | 81 | 280 | 0.0 | 2.0 | 0.00 | 0.01 | 0.01 | 42 | 1006.2 |
| 20260904211853 | 81 | 287 | 1.0 | 2.0 | 0.00 | 0.01 | 0.01 | 43 | 1006.2 |
| 20260904211558 | 80 | 134 | 0.0 | 1.0 | 0.00 | 0.01 | 0.01 | 43 | 1005.7 |
| 20260904211350 | 80 | 45 | 0.0 | 1.0 | 0.00 | 0.01 | 0.01 | 42 | 1006.2 |
| 20260904210844 | 80 | 45 | 0.0 | 3.0 | 0.00 | 0.01 | 0.01 | 44 | 1006.2 |
| 20260904210343 | 80 | 111 | 0.0 | 5.0 | 0.00 | 0.01 | 0.01 | 42 | 1006.1 |
| 20260904210047 | 79 | 296 | 0.0 | 5.0 | 0.00 | 0.01 | 0.01 | 41 | 1005.5 |
| 20260904205842 | 80 | 255 | 1.0 | 5.0 | 0.00 | 0.01 | 0.01 | 43 | 1005.9 |
| 20260904205342 | 80 | 76 | 2.0 | 3.0 | 0.00 | 0.01 | 0.01 | 42 | 1006.0 |
| 20260904204858 | 81 | 22 | 1.0 | 3.0 | 0.00 | 0.01 | 0.01 | 43 | 1005.9 |
| 20260904204539 | 80 | 289 | 1.0 | 3.0 | 0.00 | 0.01 | 0.01 | 42 | 1005.4 |
| 20260904204338 | 81 | 170 | 1.0 | 3.0 | 0.00 | 0.01 | 0.01 | 43 | 1005.9 |
| 20260904203856 | 81 | 218 | 1.0 | 3.0 | 0.00 | 0.01 | 0.01 | 42 | 1005.9 |
| 20260904203335 | 81 | 274 | 1.0 | 3.0 | 0.00 | 0.01 | 0.01 | 46 | 1005.9 |
| 20260904203054 | 81 | 233 | 0.0 | 2.0 | 0.00 | 0.01 | 0.01 | 43 | 1005.3 |
| 20260904202852 | 81 | 225 | 0.0 | 5.0 | 0.00 | 0.01 | 0.01 | 42 | 1005.9 |
| 20260904202353 | 80 | 276 | 1.0 | 5.0 | 0.00 | 0.01 | 0.01 | 41 | 1006.0 |